Location: Berlin
(42.3812°N, 71.6370°W)
Time: 12:02:22
(UTC+00:00)

Cosmos 2237 Rocket - Pass Details

Date: 15 November 2025
Orbit: 835 x 847 km, 71.0° (Epoch: 06 December)

Event Time Altitude Azimuth Distance (km) Brightness Sun altitude
Exits shadow 08:43:12 36° 25° (NNE) 1,320 3.3 -32.2°
Drops below altitude 10° 08:46:25 10° 25° (NNE) 2,464 4.9 -31.6°
Sets 08:48:51 0° 25° (NNE) 3,401 5.7 -31.1°
